Time,TemperatureF,DewpointF,PressureIn,WindDirection,WindDirectionDegrees,WindSpeedMPH,WindSpeedGustMPH,Humidity,HourlyPrecipIn,Conditions,Clouds,dailyrainin,SoftwareType,DateUTC
2013-01-06 14:22:00,41.0,3.0,-100.00,SSW,208,19.0,31.0,20,0.00,,,-99.99,,2013-01-06 21:22:00,
2013-01-06 14:42:00,40.0,6.0,-100.00,SSW,203,19.0,27.0,24,0.00,,,-99.99,,2013-01-06 21:42:00,
2013-01-06 14:52:00,39.0,6.0,-100.00,SSW,202,18.0,26.0,24,0.00,,,-99.99,,2013-01-06 21:52:00,
2013-01-06 15:02:00,39.0,4.0,-100.00,SSW,209,17.0,23.0,23,0.00,,,-99.99,,2013-01-06 22:02:00,
2013-01-06 15:12:00,39.0,7.0,-100.00,SW,226,13.0,22.0,25,0.00,,,-99.99,,2013-01-06 22:12:00,
2013-01-06 15:22:00,38.0,8.0,-100.00,WSW,258,8.0,16.0,29,0.00,,,-99.99,,2013-01-06 22:22:00,
2013-01-06 15:33:00,36.0,11.0,-100.00,NW,325,4.0,9.0,35,0.00,,,-99.99,,2013-01-06 22:33:00,
2013-01-06 15:43:00,36.0,11.0,-100.00,NW,305,7.0,10.0,36,0.00,,,-99.99,,2013-01-06 22:43:00,
2013-01-06 15:52:00,31.0,12.0,-100.00,NW,313,10.0,15.0,45,0.00,,,-99.99,,2013-01-06 22:52:00,
2013-01-06 16:02:00,31.0,9.0,-100.00,WNW,301,11.0,14.0,40,0.00,,,-99.99,,2013-01-06 23:02:00,
2013-01-06 16:12:00,34.0,10.0,-100.00,WNW,284,10.0,13.0,36,0.00,,,-99.99,,2013-01-06 23:12:00,
2013-01-06 16:22:00,34.0,9.0,-100.00,West,281,10.0,13.0,34,0.00,,,-99.99,,2013-01-06 23:22:00,
2013-01-06 16:33:00,32.0,10.0,-100.00,West,281,9.0,12.0,39,0.00,,,-99.99,,2013-01-06 23:33:00,
2013-01-06 16:42:00,32.0,11.0,-100.00,West,271,8.0,12.0,41,0.00,,,-99.99,,2013-01-06 23:42:00,
2013-01-06 16:52:00,36.0,3.0,-100.00,SSW,196,11.0,23.0,25,0.00,,,-99.99,,2013-01-06 23:52:00,
2013-01-06 17:02:00,36.0,3.0,-100.00,South,182,11.0,19.0,25,0.00,,,-99.99,,2013-01-07 00:02:00,
2013-01-06 17:12:00,35.0,7.0,-100.00,SSW,198,11.0,19.0,31,0.00,,,-99.99,,2013-01-07 00:12:00,
2013-01-06 17:23:00,29.0,9.0,-100.00,NNW,336,4.0,9.0,42,0.00,,,-99.99,,2013-01-07 00:23:00,
2013-01-06 17:32:00,26.0,9.0,-100.00,NNE,18,4.0,7.0,48,0.00,,,-99.99,,2013-01-07 00:32:00,
2013-01-06 17:42:00,27.0,9.0,-100.00,NNW,346,5.0,7.0,46,0.00,,,-99.99,,2013-01-07 00:42:00,
2013-01-06 17:52:00,28.0,6.0,-100.00,NW,304,7.0,11.0,38,0.00,,,-99.99,,2013-01-07 00:52:00,
2013-01-06 18:02:00,27.0,6.0,-100.00,WNW,296,9.0,19.0,40,0.00,,,-99.99,,2013-01-07 01:02:00,
2013-01-06 18:12:00,30.0,5.0,-100.00,WNW,299,17.0,21.0,34,0.00,,,-99.99,,2013-01-07 01:12:00,
2013-01-06 18:22:00,31.0,4.0,-100.00,WNW,282,17.0,22.0,31,0.00,,,-99.99,,2013-01-07 01:22:00,
2013-01-06 18:32:00,32.0,3.0,-100.00,West,263,12.0,17.0,29,0.00,,,-99.99,,2013-01-07 01:32:00,
2013-01-06 18:42:00,31.0,4.0,-100.00,WSW,253,9.0,12.0,31,0.00,,,-99.99,,2013-01-07 01:42:00,
2013-01-06 18:52:00,30.0,4.0,-100.00,WSW,246,9.0,14.0,33,0.00,,,-99.99,,2013-01-07 01:52:00,
2013-01-06 19:02:00,30.0,4.0,-100.00,WSW,250,15.0,20.0,33,0.00,,,-99.99,,2013-01-07 02:02:00,
2013-01-06 19:12:00,29.0,5.0,-100.00,WSW,250,15.0,20.0,34,0.00,,,-99.99,,2013-01-07 02:12:00,
2013-01-06 19:22:00,34.0,-1.0,-100.00,SW,234,9.0,14.0,22,0.00,,,-99.99,,2013-01-07 02:22:00,
2013-01-06 19:32:00,35.0,0.0,-100.00,SW,227,7.0,11.0,22,0.00,,,-99.99,,2013-01-07 02:32:00,
2013-01-06 19:42:00,35.0,-3.0,-100.00,SW,227,7.0,24.0,20,0.00,,,-99.99,,2013-01-07 02:42:00,
2013-01-06 19:52:00,35.0,-3.0,-100.00,SSW,210,14.0,23.0,19,0.00,,,-99.99,,2013-01-07 02:52:00,
2013-01-06 20:02:00,34.0,-1.0,-100.00,SSW,208,9.0,16.0,23,0.00,,,-99.99,,2013-01-07 03:02:00,
2013-01-06 20:12:00,33.0,0.0,-100.00,SSW,213,7.0,14.0,25,0.00,,,-99.99,,2013-01-07 03:12:00,
2013-01-06 20:22:00,33.0,2.0,-100.00,West,263,6.0,9.0,27,0.00,,,-99.99,,2013-01-07 03:22:00,
2013-01-06 20:33:00,30.0,5.0,-100.00,West,274,9.0,13.0,33,0.00,,,-99.99,,2013-01-07 03:33:00,
2013-01-06 20:42:00,30.0,4.0,-100.00,West,263,7.0,11.0,32,0.00,,,-99.99,,2013-01-07 03:42:00,
2013-01-06 20:52:00,29.0,4.0,-100.00,NW,305,9.0,15.0,34,0.00,,,-99.99,,2013-01-07 03:52:00,
2013-01-06 21:02:00,29.0,3.0,-100.00,NW,308,12.0,18.0,32,0.00,,,-99.99,,2013-01-07 04:02:00,
2013-01-06 21:12:00,30.0,4.0,-100.00,WNW,302,10.0,23.0,33,0.00,,,-99.99,,2013-01-07 04:12:00,
2013-01-06 21:22:00,30.0,1.0,-100.00,West,275,5.0,9.0,28,0.00,,,-99.99,,2013-01-07 04:22:00,
2013-01-06 21:32:00,31.0,1.0,-100.00,NW,308,10.0,19.0,27,0.00,,,-99.99,,2013-01-07 04:32:00,
2013-01-06 21:42:00,29.0,3.0,-100.00,NW,322,12.0,19.0,31,0.00,,,-99.99,,2013-01-07 04:42:00,
2013-01-06 21:52:00,30.0,3.0,-100.00,WNW,296,9.0,15.0,31,0.00,,,-99.99,,2013-01-07 04:52:00,
2013-01-06 22:02:00,28.0,3.0,-100.00,West,280,7.0,13.0,34,0.00,,,-99.99,,2013-01-07 05:02:00,
2013-01-06 22:12:00,28.0,4.0,-100.00,West,275,7.0,12.0,35,0.00,,,-99.99,,2013-01-07 05:12:00,
2013-01-06 22:22:00,33.0,-1.0,-100.00,West,274,8.0,15.0,23,0.00,,,-99.99,,2013-01-07 05:22:00,
2013-01-06 22:33:00,31.0,1.0,-100.00,WSW,254,6.0,9.0,27,0.00,,,-99.99,,2013-01-07 05:33:00,
2013-01-06 22:42:00,31.0,0.0,-100.00,WSW,241,6.0,10.0,27,0.00,,,-99.99,,2013-01-07 05:42:00,
2013-01-06 22:52:00,32.0,-1.0,-100.00,SW,219,9.0,14.0,24,0.00,,,-99.99,,2013-01-07 05:52:00,
2013-01-06 23:02:00,31.0,-1.0,-100.00,SW,223,9.0,14.0,25,0.00,,,-99.99,,2013-01-07 06:02:00,
2013-01-06 23:12:00,33.0,-1.0,-100.00,SW,234,11.0,22.0,23,0.00,,,-99.99,,2013-01-07 06:12:00,
2013-01-06 23:22:00,36.0,-2.0,-100.00,WSW,247,14.0,26.0,19,0.00,,,-99.99,,2013-01-07 06:22:00,
2013-01-06 23:32:00,32.0,1.0,-100.00,SW,236,12.0,22.0,25,0.00,,,-99.99,,2013-01-07 06:32:00,
2013-01-06 23:42:00,30.0,1.0,-100.00,WSW,244,14.0,22.0,28,0.00,,,-99.99,,2013-01-07 06:42:00,
2013-01-06 23:52:00,33.0,3.0,-100.00,WSW,253,21.0,33.0,27,0.00,,,-99.99,,2013-01-07 06:52:00,